This is the latest recevied weather packets stored in our database for station/object K4PAD. If no packets are shown the sender has not sent any weather packets the latest 10 day(s).
| Time | Temp. | Humidity | Pressure | Rain* | Wind** | Luminosity | Snow |
|---|---|---|---|---|---|---|---|
| 1777851833 | 21.11° C | 47% | 1018.8 hPa | 0 mm | - | 23 W/m² | - |
| 1777851531 | 21.11° C | 47% | 1018.7 hPa | 0 mm | - | 31 W/m² | - |
| 1777851227 | 21.67° C | 46% | 1018.8 hPa | 0 mm | - | 41 W/m² | - |
| 1777850923 | 21.67° C | 47% | 1018.8 hPa | 0 mm | - | 53 W/m² | - |
| 1777850621 | 21.67° C | 46% | 1019 hPa | 0 mm | - | 64 W/m² | - |
| 1777850319 | 21.67° C | 47% | 1018.7 hPa | 0 mm | - | 75 W/m² | - |
| 1777850016 | 21.67° C | 49% | 1018.7 hPa | 0 mm | - | 95 W/m² | - |
| 1777849711 | 21.67° C | 47% | 1018.7 hPa | 0 mm | - | 105 W/m² | - |
| 1777849409 | 22.22° C | 47% | 1018.8 hPa | 0 mm | - | 92 W/m² | - |
| 1777849106 | 22.22° C | 46% | 1018.5 hPa | 0 mm | - | 112 W/m² | - |
| 1777848802 | 22.22° C | 47% | 1018.4 hPa | 0 mm | - | 121 W/m² | - |
| 1777848498 | 22.22° C | 46% | 1018.4 hPa | 0 mm | - | 155 W/m² | - |
| 1777848196 | 22.22° C | 47% | 1018.6 hPa | 0 mm | - | 144 W/m² | - |
| 1777847893 | 22.22° C | 45% | 1018.6 hPa | 0 mm | - | 113 W/m² | - |
| 1777847591 | 22.22° C | 45% | 1018.5 hPa | 0 mm | - | 140 W/m² | - |
| 1777847286 | 22.78° C | 44% | 1018.3 hPa | 0 mm | - | 146 W/m² | - |
| 1777846985 | 23.33° C | 43% | 1018.5 hPa | 0 mm | - | 208 W/m² | - |
| 1777846683 | 22.78° C | 46% | 1018.5 hPa | 0 mm | - | 296 W/m² | - |
| 1777846381 | 22.78° C | 44% | 1018.6 hPa | 0 mm | - | 284 W/m² | - |
| 1777846077 | 22.78° C | 44% | 1018.5 hPa | 0 mm | - | 348 W/m² | - |
| 1777845774 | 23.89° C | 43% | 1018.5 hPa | 0 mm | - | 232 W/m² | - |
| 1777845470 | 23.89° C | 44% | 1018.6 hPa | 0 mm | - | 381 W/m² | - |
| 1777845168 | 23.33° C | 43% | 1018.4 hPa | 0 mm | - | 397 W/m² | - |
| 1777844866 | 23.33° C | 43% | 1018.4 hPa | 0 mm | - | 419 W/m² | - |
| 1777844562 | 23.89° C | 42% | 1018.4 hPa | 0 mm | - | 438 W/m² | - |
* Rain latest hour (hover to see other rain measurements)
** Current wind speed in m/s (hover to see current wind gust speed)